Location: Oberkirch
(48.5323°N, 8.0787°E)
Time: 16:50:09
(UTC+00:00)

Cosmos 2360 Rocket - Pass Details

Date: 08 November 2025
Orbit: 833 x 843 km, 71.0° (Epoch: 09 December)

Event Time Altitude Azimuth Distance (km) Brightness Sun altitude
Exits shadow 02:17:36 22° 48° (NE) 1,791 4.3 -40.6°
Drops below altitude 10° 02:19:36 10° 38° (NE) 2,472 5.2 -40.3°
Sets 02:22:09 0° 33° (NNE) 3,411 6.0 -39.9°
